TimeEDT,TemperatureF,Dew PointF,Humidity,Sea Level PressureIn,VisibilityMPH,Wind Direction,Wind SpeedMPH,Gust SpeedMPH,PrecipitationIn,Events,Conditions,WindDirDegrees,DateUTC
12:54 AM,50.0,36.0,59,30.06,10.0,Calm,Calm,-,N/A,,Clear,0,2013-04-06 04:54:00
1:54 AM,46.9,36.0,66,30.07,10.0,Calm,Calm,-,N/A,,Clear,0,2013-04-06 05:54:00
2:54 AM,50.0,36.0,59,30.07,10.0,Calm,Calm,-,N/A,,Clear,0,2013-04-06 06:54:00
3:54 AM,39.9,36.0,86,30.08,10.0,Calm,Calm,-,N/A,,Clear,0,2013-04-06 07:54:00
4:54 AM,39.9,36.0,86,30.11,10.0,Calm,Calm,-,N/A,,Clear,0,2013-04-06 08:54:00
5:54 AM,46.0,36.0,68,30.11,10.0,NNE,3.5,-,N/A,,Clear,20,2013-04-06 09:54:00
6:54 AM,39.9,35.1,83,30.15,10.0,Calm,Calm,-,N/A,,Clear,0,2013-04-06 10:54:00
7:54 AM,46.9,37.0,68,30.18,10.0,North,5.8,-,N/A,,Clear,350,2013-04-06 11:54:00
8:54 AM,51.1,39.0,63,30.21,10.0,NNE,9.2,-,N/A,,Clear,30,2013-04-06 12:54:00
9:54 AM,55.9,36.0,47,30.21,10.0,ENE,8.1,-,N/A,,Clear,60,2013-04-06 13:54:00
10:54 AM,61.0,36.0,39,30.22,10.0,Variable,3.5,-,N/A,,Clear,0,2013-04-06 14:54:00
11:54 AM,63.0,32.0,31,30.22,10.0,East,5.8,-,N/A,,Clear,80,2013-04-06 15:54:00
12:54 PM,64.9,30.9,28,30.22,10.0,Calm,Calm,-,N/A,,Clear,0,2013-04-06 16:54:00
1:54 PM,66.9,33.1,28,30.21,10.0,Variable,4.6,-,N/A,,Clear,0,2013-04-06 17:54:00
2:54 PM,66.9,30.9,26,30.18,10.0,East,5.8,-,N/A,,Clear,80,2013-04-06 18:54:00
3:54 PM,68.0,30.9,25,30.17,10.0,Variable,4.6,-,N/A,,Clear,0,2013-04-06 19:54:00
4:54 PM,69.1,32.0,25,30.15,10.0,Variable,5.8,-,N/A,,Clear,0,2013-04-06 20:54:00
5:54 PM,66.9,32.0,27,30.15,10.0,SE,3.5,-,N/A,,Clear,130,2013-04-06 21:54:00
6:54 PM,66.0,34.0,30,30.16,10.0,East,3.5,-,N/A,,Clear,100,2013-04-06 22:54:00
7:54 PM,63.0,35.1,35,30.17,10.0,Calm,Calm,-,N/A,,Clear,0,2013-04-06 23:54:00
8:54 PM,60.1,36.0,41,30.18,10.0,Calm,Calm,-,N/A,,Clear,0,2013-04-07 00:54:00
9:54 PM,60.1,36.0,41,30.19,10.0,ESE,5.8,-,N/A,,Clear,120,2013-04-07 01:54:00
10:54 PM,57.9,37.0,46,30.19,10.0,SE,3.5,-,N/A,,Clear,130,2013-04-07 02:54:00
11:54 PM,57.0,37.9,49,30.20,10.0,SSE,8.1,-,N/A,,Clear,150,2013-04-07 03:54:00